SCP
3 3 4 4 4 3 2 2 2 2 2 2 2 1 1 1 1 1 1 0 1 1 1 0 0 0 0 0 0 0 0 0 0 0 0 0 0 0 0 0 0 0 0
3 3 4 4 4 3 3 3 3 2 2 2 2 1 1 1 1 1 1 1 1 0 0 0 0 0 0 0 0 0 0 0 0 0 0 0 0 0 0 0 0 0 0
3 3 3 4 4 4 4 3 3 2 2 2 1 1 1 1 1 1 1 1 1 0 0 0 0 0 0 0 0 0 0 0 0 0 0 0 0 0 0 0 1 1 1
3 3 3 4 4 4 4 4 3 2 2 2 1 2 2 2 1 1 1 1 1 1 0 0 0 0 0 0 0 0 0 0 0 0 0 0 0 0 0 0 1 1 1
3 3 4 4 4 4 4 4 3 2 2 2 2 1 2 2 2 1 1 1 1 1 1 0 0 0 0 0 0 0 0 0 0 0 0 0 0 0 0 0 0 0 0
3 3 3 3 3 3 3 4 3 2 2 2 1 1 2 2 2 1 1 1 1 1 1 1 0 0 0 0 0 0 0 0 0 0 0 0 0 0 0 0 0 0 0
2 2 2 2 1 1 2 3 3 2 1 1 1 1 1 2 1 1 1 1 1 1 1 1 1 0 0 0 0 0 0 0 0 1 1 0 0 0 0 0 0 0 0
2 1 1 1 1 1 1 2 2 2 1 1 1 1 1 1 1 1 1 1 1 1 1 1 1 1 0 0 0 0 0 0 1 1 1 0 0 0 0 0 0 0 0
1 0 0 0 0 0 0 1 1 1 1 1 1 1 1 0 0 0 0 1 1 1 1 1 0 0 0 0 0 0 0 1 1 1 1 0 0 0 0 0 0 0 0
0 0 0 0 0 0 0 0 1 1 1 0 0 1 1 0 0 0 0 0 0 0 0 0 0 0 0 0 0 0 0 1 1 1 1 0 0 0 0 0 0 0 0
0 0 0 0 0 0 0 0 0 1 1 0 0 1 1 1 0 0 0 0 0 0 0 0 0 0 0 0 0 0 0 0 1 1 1 1 1 1 1 0 0 0 0
0 0 0 0 0 0 0 0 0 0 0 0 0 1 1 1 1 0 0 0 0 0 0 0 0 0 0 0 0 0 0 0 0 1 1 1 1 1 1 0 0 0 0
0 0 0 0 0 0 0 0 0 0 0 0 0 1 1 1 1 1 0 0 0 0 0 0 0 0 0 0 0 0 0 0 0 0 0 0 0 0 0 0 0 0 0
0 0 0 0 0 0 0 0 0 0 0 0 0 1 1 1 1 1 1 0 0 0 0 0 0 0 0 0 0 0 0 0 0 0 0 0 0 0 0 0 0 0 0
0 0 0 0 0 0 0 0 0 0 0 0 0 0 1 1 1 1 1 0 0 0 0 0 0 0 0 0 0 0 0 0 0 0 0 0 0 0 0 0 0 0 0
0 0 0 0 0 0 0 0 0 0 0 0 0 0 0 1 1 1 1 0 0 0 0 0 0 0 0 0 0 0 0 0 0 0 0 0 0 0 0 0 0 0 0
0 0 0 0 0 0 0 0 0 0 0 0 0 0 0 0 1 1 1 0 0 0 0 0 0 0 0 0 0 0 0 0 0 0 0 0 0 0 0 0 0 0 0
0 0 0 0 0 0 0 0 0 0 0 0 0 0 0 0 0 1 1 0 0 0 0 0 0 0 0 0 0 0 0 0 0 0 0 0 0 0 0 0 0 0 0
0 0 0 0 0 0 0 0 0 0 0 0 0 0 0 0 0 0 0 0 0 0 0 0 0 0 0 0 0 0 0 0 0 0 0 0 0 0 0 0 0 0 0
1 1 0 0 0 0 0 0 0 0 0 0 0 0 0 0 0 0 0 0 0 0 0 0 0 0 0 0 0 0 0 0 0 0 0 0 0 0 0 0 0 0 0
0 1 0 0 0 0 0 0 0 0 0 0 1 0 0 0 0 0 0 0 0 0 0 0 0 0 0 0 0 0 0 0 0 0 0 0 0 0 0 0 0 0 0
0 0 0 0 0 0 0 0 0 0 0 0 0 0 0 0 0 0 0 0 0 0 0 0 0 0 0 0 0 0 0 0 0 0 0 0 0 0 0 0 0 0 0
0 0 0 0 0 0 0 0 0 0 0 0 0 0 0 0 0 0 0 0 0 0 0 0 0 0 0 0 0 0 0 0 0 0 0 0 0 0 0 0 0 0 0
0 0 0 0 0 0 0 0 0 0 0 0 0 0 0 0 0 0 0 0 0 0 0 0 0 0 0 0 0 0 0 0 0 0 0 0 0 0 0 0 0 0 0
0 0 0 0 0 0 0 0 0 0 0 0 0 0 0 0 0 0 0 0 0 0 0 0 0 0 0 0 0 0 0 0 0 0 0 0 0 0 0 0 0 0 0
0 0 0 0 0 0 0 0 0 0 0 0 0 0 0 0 0 0 0 0 0 0 0 0 0 0 0 0 0 0 0 0 0 0 0 0 0 0 0 0 0 0 0
Wind_Speed
4 4 3 3 3 3 3 3 3 4 3 3 3 3 3 3 2 2 3 6 6 6 6 5 5 5 6 6 7 7 7 8 8 9 9 10 10 10 11 11 11 12 12
4 4 3 3 3 3 3 3 4 3 2 3 3 3 3 3 2 2 2 3 5 6 6 5 5 6 6 7 7 8 8 9 9 10 10 10 11 11 11 11 12 13 13
5 4 3 3 3 3 4 3 4 3 3 3 3 2 2 2 2 2 2 1 2 4 5 5 5 6 7 7 8 8 9 10 10 10 11 11 12 12 12 12 13 14 14
5 4 3 3 4 3 3 3 3 3 3 3 2 2 1 2 1 2 1 1 1 1 3 6 6 6 7 7 8 9 10 10 10 11 11 12 12 12 13 13 14 14 15
5 4 3 3 4 3 3 3 3 3 3 3 2 1 1 1 1 1 1 2 2 2 2 3 4 5 7 8 8 9 10 10 11 11 12 12 13 13 14 14 15 15 16
5 4 3 4 4 4 4 3 4 3 2 2 2 1 0 0 1 1 1 1 1 1 2 2 2 2 5 7 8 10 10 11 11 12 12 13 13 13 14 15 15 16 16
5 4 3 4 4 4 4 4 3 4 3 2 2 1 1 1 1 1 1 0 0 1 1 2 2 2 2 4 7 10 11 11 12 12 13 13 14 14 15 15 16 16 16
5 4 5 4 4 4 4 5 4 3 2 2 1 2 2 2 2 1 1 1 0 0 1 2 2 3 3 3 5 9 11 12 13 13 13 14 14 15 15 15 15 16 16
5 5 5 4 4 4 4 5 5 4 3 3 1 1 1 1 0 2 1 1 1 1 1 2 2 3 4 4 4 6 10 12 13 13 14 14 14 15 15 15 16 16 16
5 5 5 5 4 4 5 5 4 4 4 3 2 0 1 1 1 1 2 1 1 2 2 2 2 2 3 3 5 7 10 12 13 13 14 14 15 15 15 15 16 16 16
5 5 5 5 5 4 5 5 4 5 4 3 2 2 2 1 2 2 2 2 2 2 2 2 2 2 3 4 4 7 11 12 13 13 14 14 15 15 15 15 16 16 16
4 5 5 5 5 4 5 5 5 5 4 4 3 3 2 2 2 2 2 2 2 2 2 2 2 2 2 3 5 8 11 12 12 13 13 14 14 15 15 15 16 16 16
4 5 5 5 5 4 5 5 5 5 5 5 4 3 3 2 2 2 2 2 3 2 2 2 2 2 3 3 4 9 9 11 11 12 12 13 14 14 15 15 16 16 16
4 4 5 5 5 5 5 5 5 5 4 4 4 4 3 2 2 3 2 2 2 2 3 3 2 2 3 4 6 9 7 9 11 12 12 12 13 13 14 15 15 15 16
3 4 4 5 5 5 5 5 4 5 4 4 3 3 3 2 2 2 2 3 3 3 3 2 2 2 4 5 6 7 7 8 11 11 11 11 12 13 14 14 15 15 15
4 4 4 5 5 5 6 5 5 5 5 4 3 3 3 2 2 2 2 2 3 3 3 2 3 4 5 5 7 7 6 9 9 10 11 11 12 13 13 13 14 15 15
5 5 5 5 5 6 6 5 5 6 5 5 4 4 4 3 2 2 2 2 2 3 4 4 4 4 6 6 6 6 6 6 6 9 11 12 12 12 12 13 14 14 15
4 4 5 5 5 5 6 6 6 6 6 6 5 5 4 3 3 2 2 2 2 3 3 5 4 4 5 6 6 7 6 5 6 8 10 11 12 12 13 13 13 13 14
4 4 4 4 5 5 5 5 5 5 5 5 5 5 5 5 4 3 3 2 2 2 2 3 4 4 4 5 6 6 6 5 6 7 9 9 10 12 12 12 13 13 14
4 4 4 4 4 4 5 5 5 5 5 4 4 4 5 5 4 4 3 3 2 2 2 3 4 4 4 5 5 5 5 5 6 6 7 8 9 10 11 11 12 13 14
3 3 3 4 4 4 4 5 5 5 5 4 4 4 4 4 4 3 3 3 3 3 3 3 3 4 4 4 4 5 6 6 6 5 6 6 6 6 7 8 10 12 14
3 3 3 3 3 3 3 5 4 4 5 5 4 4 3 4 4 4 4 4 4 4 3 3 4 5 5 5 5 5 6 6 5 4 6 6 6 6 6 6 10 13 14
3 3 3 3 3 3 4 5 4 4 4 4 4 4 3 3 4 3 2 2 3 4 5 5 5 6 6 5 5 6 6 6 6 6 7 7 6 6 6 6 11 12 13
2 2 2 3 2 2 3 4 4 4 3 4 4 4 4 4 3 3 2 2 2 3 4 4 4 5 5 5 5 6 6 6 6 4 5 6 6 6 7 6 8 11 13
2 2 2 3 3 3 3 4 3 3 3 3 3 3 4 4 4 3 3 2 2 2 3 4 5 6 7 7 6 4 4 4 5 4 4 4 5 7 7 6 6 9 11
2 2 2 2 2 2 3 3 3 2 3 2 2 2 4 4 4 4 3 3 3 2 2 3 3 4 4 4 6 4 4 4 5 4 2 4 4 5 6 4 5 6 7
Wind_Direction
157 154 152 151 150 146 149 143 140 131 135 134 128 126 124 121 114 99 84 60 45 45 45 38 31 26 22 17 10 6 358 351 346 342 339 334 330 329 326 322 320 318 316
159 158 151 154 150 150 147 147 139 136 135 125 121 123 126 124 118 110 96 92 60 43 39 34 27 21 17 11 6 4 357 350 344 339 334 330 328 324 322 321 319 317 316
163 160 156 160 153 149 148 143 139 143 130 125 124 121 120 114 120 111 100 91 92 68 43 30 22 18 13 9 5 1 356 350 347 344 339 334 331 327 323 319 318 316 314
170 165 162 160 159 156 152 147 150 148 141 139 134 129 128 124 122 105 109 94 61 58 62 40 23 13 9 5 2 358 351 349 346 343 340 335 330 327 323 321 319 317 314
177 174 165 159 163 160 157 152 153 149 146 138 128 123 125 139 127 134 124 94 64 44 38 56 32 19 8 2 357 350 346 345 344 342 338 335 331 327 324 320 318 316 315
172 169 169 167 167 164 160 159 147 135 137 134 124 115 105 179 178 162 151 117 82 44 27 19 9 22 11 360 354 348 344 342 341 339 336 333 331 328 326 323 320 319 317
171 168 166 170 177 174 168 160 150 144 133 139 153 151 164 202 223 184 194 191 92 37 13 5 356 346 349 356 353 347 342 340 339 336 333 332 330 329 326 324 323 323 322
173 172 169 170 172 167 166 165 163 157 143 172 194 181 186 185 173 184 198 206 258 327 348 350 350 347 338 336 350 343 341 339 336 335 335 334 332 329 328 326 325 325 324
175 174 176 173 172 174 173 175 178 176 166 165 195 236 223 218 175 181 197 225 251 283 310 333 337 337 335 333 333 343 341 337 336 335 334 333 332 331 330 329 328 329 328
178 176 178 180 181 183 179 178 184 179 175 172 168 224 310 345 252 223 188 204 261 280 297 317 319 322 330 331 334 336 338 337 336 334 334 333 333 331 330 330 329 330 331
179 177 179 183 185 184 182 179 179 182 183 187 183 180 187 200 251 255 245 241 256 266 289 301 301 307 329 333 330 340 336 335 335 334 334 333 332 331 331 331 333 332 331
177 179 182 187 190 187 182 182 185 184 184 188 191 198 200 203 213 237 251 257 273 283 293 287 286 304 327 324 331 338 334 332 333 334 335 336 337 336 334 333 331 329 329
187 186 183 188 190 190 187 182 185 189 191 192 194 201 210 221 219 240 238 256 278 288 278 267 279 301 318 317 326 331 326 328 331 332 333 336 337 335 333 331 330 329 328
194 190 186 187 187 184 185 183 182 185 190 193 195 196 200 206 208 216 227 243 270 273 262 272 295 302 313 316 329 315 315 327 329 331 333 335 335 333 331 330 329 328 327
186 188 188 185 182 181 184 183 183 183 184 189 190 192 195 196 205 217 222 227 248 266 275 287 299 307 315 314 318 311 314 326 325 328 331 332 332 332 330 329 328 328 328
182 184 187 185 181 181 183 185 179 179 181 182 185 189 188 192 197 212 218 234 247 256 264 292 300 303 308 307 312 311 315 314 320 328 330 331 331 330 329 329 330 329 329
183 185 183 185 186 185 183 182 182 180 184 183 184 190 194 195 198 203 214 225 239 248 261 285 295 298 302 306 312 313 314 318 322 328 327 329 328 327 328 329 329 331 331
184 184 181 186 190 188 185 184 184 186 188 188 189 192 194 194 204 205 214 233 248 259 262 274 291 296 298 305 308 311 315 316 316 324 324 325 325 327 328 328 329 332 332
178 175 180 188 191 188 187 189 190 190 193 195 194 195 195 195 203 210 222 236 253 265 263 265 284 295 296 303 307 308 312 312 316 318 320 322 323 325 326 328 331 332 331
177 178 182 191 195 191 191 190 193 196 197 199 198 199 201 203 207 211 222 231 244 256 260 266 279 291 297 303 304 309 310 316 317 316 319 320 317 317 320 325 328 330 330
180 180 186 193 195 194 193 191 195 198 198 197 198 204 207 207 215 225 230 230 236 245 256 266 276 289 294 302 307 310 307 312 309 313 314 317 316 315 317 321 324 328 328
176 178 187 192 195 195 182 191 201 200 199 199 200 200 193 194 204 226 237 251 258 255 256 261 272 276 288 296 304 304 307 309 308 322 313 310 311 311 314 318 326 326 327
170 178 183 189 197 187 181 193 202 206 200 201 200 196 193 192 206 209 219 245 272 283 276 269 265 275 286 292 296 298 298 300 302 310 307 300 307 308 312 316 320 322 326
174 175 185 196 200 187 180 188 191 206 205 207 207 202 195 196 202 210 225 245 268 282 284 280 277 283 292 295 289 288 290 294 293 297 305 297 306 307 310 307 316 321 325
180 178 182 193 199 193 181 182 187 200 201 208 209 206 200 203 197 207 220 234 262 290 315 308 305 301 303 302 299 292 291 293 299 304 313 297 303 308 302 297 310 316 318
187 177 180 195 202 202 183 185 192 193 200 203 203 203 204 208 197 209 222 224 242 273 294 308 311 308 305 304 304 292 287 287 297 299 313 305 303 315 306 299 309 317 317